2023/01/25 00:00:00,78.8,-7.9
2023/01/25 00:10:00,79.4,-7.9
2023/01/25 00:20:00,79.1,-8.4
2023/01/25 00:30:00,79.4,-7.9
2023/01/25 00:40:00,79.9,-8.5
2023/01/25 00:50:00,80.1,-8.0
2023/01/25 01:00:00,80.9,-8.1
2023/01/25 01:10:00,81.5,-7.7
2023/01/25 01:20:00,81.8,-8.0
2023/01/25 01:30:00,82.0,-8.2
2023/01/25 01:40:00,82.5,-8.6
2023/01/25 01:50:00,82.7,-8.2
2023/01/25 02:00:00,83.1,-8.5
2023/01/25 02:10:00,83.5,-8.4
2023/01/25 02:20:00,83.7,-8.4
2023/01/25 02:30:00,83.8,-8.7
2023/01/25 02:40:00,84.1,-8.7
2023/01/25 02:50:00,84.6,-8.2
2023/01/25 03:00:00,84.8,-8.8
2023/01/25 03:10:00,85.2,-8.4
2023/01/25 03:20:00,85.5,-8.5
2023/01/25 03:30:00,86.2,-8.7
2023/01/25 03:40:00,86.7,-8.6
2023/01/25 03:50:00,87.4,-8.4
2023/01/25 04:00:00,88.0,-8.7
2023/01/25 04:10:00,88.5,-8.2
2023/01/25 04:20:00,89.2,-8.4
2023/01/25 04:30:00,89.5,-8.2
2023/01/25 04:40:00,90.2,-8.6
2023/01/25 04:50:00,90.9,-8.0
2023/01/25 05:00:00,91.4,-8.2
2023/01/25 05:10:00,92.0,-8.4
2023/01/25 05:20:00,92.4,-8.6
2023/01/25 05:30:00,93.2,-8.4
2023/01/25 05:40:00,93.7,-7.9
2023/01/25 05:50:00,93.8,-8.2
2023/01/25 06:00:00,94.3,-7.9
2023/01/25 06:10:00,94.9,-8.1
2023/01/25 06:20:00,95.0,-7.8
2023/01/25 06:30:00,95.5,-7.8
2023/01/25 06:40:00,96.1,-7.7
2023/01/25 06:50:00,96.5,-7.6
2023/01/25 07:00:00,96.5,-7.5
2023/01/25 07:10:00,96.9,-7.6
2023/01/25 07:20:00,97.0,-7.2
2023/01/25 07:30:00,97.4,-7.2
2023/01/25 07:40:00,98.0,-7.1
2023/01/25 07:50:00,98.2,-7.3
2023/01/25 08:00:00,98.2,-7.2
2023/01/25 08:10:00,98.2,-7.1
2023/01/25 08:20:00,98.2,-7.0
2023/01/25 08:30:00,98.0,-7.1
2023/01/25 08:40:00,98.4,-6.5
2023/01/25 08:50:00,98.5,-6.7
2023/01/25 09:00:00,98.2,-6.9
2023/01/25 09:10:00,98.4,-7.0
2023/01/25 09:20:00,99.1,-7.3
2023/01/25 09:30:00,99.4,-6.5
2023/01/25 09:40:00,99.2,-7.0
2023/01/25 09:50:00,99.9,-6.9
2023/01/25 10:00:00,99.7,-5.1
2023/01/25 10:10:00,99.6,-5.6
2023/01/25 10:20:00,99.3,-5.6
2023/01/25 10:30:00,99.1,-5.0
2023/01/25 10:40:00,98.8,-5.7
2023/01/25 10:50:00,98.6,-5.1
2023/01/25 11:00:00,98.4,-4.9
2023/01/25 11:10:00,98.3,-4.9
2023/01/25 11:20:00,98.3,-5.4
2023/01/25 11:30:00,98.2,-5.7
2023/01/25 11:40:00,99.0,-5.6
2023/01/25 11:50:00,99.1,-4.8
2023/01/25 12:00:00,98.9,-4.7
2023/01/25 12:10:00,98.5,-5.2
2023/01/25 12:20:00,98.2,-5.2
2023/01/25 12:30:00,98.0,-5.9
2023/01/25 12:40:00,97.9,-5.9
2023/01/25 12:50:00,97.7,-5.8
2023/01/25 13:00:00,97.4,-5.5
2023/01/25 13:10:00,97.2,-5.6
2023/01/25 13:20:00,97.6,-4.9
2023/01/25 13:30:00,97.9,-5.2
2023/01/25 13:40:00,98.1,-5.2
2023/01/25 13:50:00,98.3,-2.7
2023/01/25 14:00:00,98.2,-4.1
2023/01/25 14:10:00,98.0,-4.8
2023/01/25 14:20:00,98.2,-4.8
2023/01/25 14:30:00,98.3,-4.6
2023/01/25 14:40:00,98.2,-4.1
2023/01/25 14:50:00,98.0,-4.9
2023/01/25 15:00:00,97.6,-4.3
2023/01/25 15:10:00,97.4,-3.2
2023/01/25 15:20:00,97.2,-2.5
2023/01/25 15:30:00,97.1,-3.4
2023/01/25 15:40:00,96.9,-4.2
2023/01/25 15:50:00,96.9,-4.4
2023/01/25 16:00:00,96.7,-4.9
2023/01/25 16:10:00,97.3,-4.6
2023/01/25 16:20:00,97.5,-3.5
2023/01/25 16:30:00,97.1,-4.2
2023/01/25 16:40:00,97.0,-4.3
2023/01/25 16:50:00,96.5,-4.8
2023/01/25 17:00:00,96.1,-5.2
2023/01/25 17:10:00,96.2,-5.6
2023/01/25 17:20:00,96.2,-5.6
2023/01/25 17:30:00,96.2,-5.5
2023/01/25 17:40:00,96.1,-6.1
2023/01/25 17:50:00,95.8,-6.3
2023/01/25 18:00:00,95.7,-6.3
2023/01/25 18:10:00,95.4,-6.7
2023/01/25 18:20:00,95.2,-6.4
2023/01/25 18:30:00,95.1,-6.4
2023/01/25 18:40:00,94.8,-6.7
2023/01/25 18:50:00,94.7,-6.3
2023/01/25 19:00:00,95.1,-6.0
2023/01/25 19:10:00,95.2,-6.3
2023/01/25 19:20:00,95.1,-6.2
2023/01/25 19:30:00,95.2,-6.3
2023/01/25 19:40:00,94.6,-6.7
2023/01/25 19:50:00,94.3,-6.9
2023/01/25 20:00:00,94.3,-6.4
2023/01/25 20:10:00,94.2,-6.9
2023/01/25 20:20:00,93.8,-7.1
2023/01/25 20:30:00,93.5,-7.1
2023/01/25 20:40:00,93.2,-7.1
2023/01/25 20:50:00,93.1,-6.6
2023/01/25 21:00:00,93.0,-6.5
2023/01/25 21:10:00,93.0,-6.1
2023/01/25 21:20:00,93.0,-5.9
2023/01/25 21:30:00,92.6,-6.6
2023/01/25 21:40:00,92.6,-5.8
2023/01/25 21:50:00,93.0,-6.0
2023/01/25 22:00:00,92.8,-6.4
2023/01/25 22:10:00,92.7,-6.4
2023/01/25 22:20:00,92.6,-7.1
2023/01/25 22:30:00,92.5,-6.5
2023/01/25 22:40:00,92.1,-7.0
2023/01/25 22:50:00,92.3,-7.1
2023/01/25 23:00:00,92.2,-7.9
2023/01/25 23:10:00,91.7,-7.5
2023/01/25 23:20:00,91.5,-8.0
2023/01/25 23:30:00,91.6,-8.3
2023/01/25 23:40:00,91.8,-8.5
2023/01/25 23:50:00,91.4,-9.2
